Tracking 19706 objects as of 16-Jun-2019
HD Live streaming from Space Station
objects crossing your sky now

SL-12 R/B(AUX MOTOR)

Track SL-12 R/B(AUX MOTOR) now!
10-day predictions


NORAD ID: 19170
Int'l Code: 1988-043H
Perigee: 510.6 km
Apogee: 18,945.9 km
Inclination: 64.9 °
Period: 338.8 minutes
Semi major axis: 16099 km
RCS: 0.7038 m2 (medium)
Launch date: May 21, 1988
Source: Commonwealth of Independent States (former USSR) (CIS)
Launch site: TYURATAM MISSILE AND SPACE COMPLEX (TTMTR)

Note: This is a ROCKET BODY
aabbcc
Your satellite tracking list
Your tracking list is empty




NASA's NSSDC Master Catalog

Two Line Element Set (TLE):
1 19170U 88043H   19166.21236928 -.00000059  00000-0 -30189-6 0  9990
2 19170  64.8894 107.7210 5725501 155.5110 248.6345  4.25005099481302
Source of the keplerian elements: AFSPC